Lid_Strength_Index
13 13 13 13 13 14 14 14 15 15 15 15 15 15 15 15 15 16 16 15 14 14 14 13 13 12 12 13 12 12 12 12
13 13 13 14 14 14 15 15 15 15 15 16 15 15 15 15 16 16 15 15 14 14 14 14 13 12 13 13 13 13 13 12
14 14 14 14 14 14 15 15 15 15 16 15 15 15 15 16 16 16 16 15 15 14 13 13 13 13 13 13 13 13 13 13
15 14 14 14 15 15 15 15 15 16 16 16 16 16 20 21 21 18 19 19 16 14 14 13 13 13 13 12 12 12 12 12
15 15 14 14 15 15 15 15 16 16 16 17 17 17 19 23 17 16 18 19 17 16 16 16 14 13 13 12 12 13 13 12
15 15 16 16 16 16 16 16 16 17 18 19 19 21 23 25 24 19 14 20 19 19 19 18 14 13 12 12 13 14 14 13
16 16 16 15 15 16 16 17 17 18 19 21 22 24 23 27 26 23 21 22 22 20 21 19 14 12 11 12 15 15 14 14
15 14 14 15 15 16 16 18 18 19 21 22 23 22 24 27 28 25 23 25 23 23 23 22 19 13 11 12 15 16 16 15
15 15 15 17 16 17 18 18 18 20 21 23 23 22 26 28 26 26 25 24 24 24 25 25 20 14 12 13 18 19 18 16
14 15 16 16 16 17 19 19 19 19 20 21 21 21 24 24 23 25 24 22 23 23 24 23 23 15 13 14 19 17 18 17
17 17 18 18 17 17 18 19 19 18 19 20 20 20 22 22 24 26 25 21 19 20 23 23 22 16 13 14 16 20 18 19
20 17 19 19 17 18 19 18 17 18 20 21 20 20 21 22 23 23 23 21 23 21 21 23 22 21 14 13 18 20 20 19
18 20 23 19 17 18 18 18 20 19 20 20 20 19 20 21 20 19 19 19 21 22 21 20 20 17 15 14 14 16 20 20
18 18 20 19 17 18 20 20 20 20 19 19 20 19 19 20 19 18 18 19 19 19 19 20 19 19 15 14 14 16 18 18
18 18 18 19 18 18 19 19 19 19 19 20 19 19 20 18 18 18 18 19 18 19 19 20 20 19 19 18 19 18 20 20
17 17 17 18 18 18 18 19 19 19 19 19 19 19 19 19 18 18 17 17 18 17 18 20 20 18 15 16 19 22 19 27
16 16 17 17 18 18 19 19 18 19 19 19 18 19 18 19 19 16 15 15 14 14 18 19 16 13 12 13 13 14 16 27
17 17 17 18 18 20 20 19 19 18 17 18 18 18 19 19 19 19 19 14 14 14 14 14 16 14 14 14 14 15 20 29
19 19 19 19 19 20 20 21 19 19 18 18 18 18 18 18 19 18 19 18 18 14 13 13 13 13 14 14 17 24 25 31
21 21 21 21 21 21 21 21 21 20 19 18 18 19 19 19 19 19 19 19 23 25 17 16 12 13 13 13 22 23 27 28